Location: ??????
(55.2000°N, 38.3000°E)
Time: 01:46:53
(UTC+00:00)

USA 238 - Pass Details

Date: 15 November 2025
Orbit: 887 x 1324 km, 63.4° (Epoch: 24 November)

Event Time Altitude Azimuth Distance (km) Brightness Sun altitude
Exits shadow 02:03:34 34° 319° (NW) 1,689 4.4 -24.7°
Maximum altitude 02:05:45 44° 0° (N) 1,501 4.4 -24.4°
Drops below altitude 10° 02:12:49 10° 71° (ENE) 3,129 7.1 -23.4°
Sets 02:15:53 0° 78° (ENE) 4,155 8.2 -23.0°
